• Join FlightAware (Why Join?)
  • Login
  • US Flag 
04:01AM EDT


 

Airport Tracker/Info


-or-


 

Live Flight TrackerFlight Track Log ✈ GJS3649 ✈ 08-Apr-2013 ✈ KSTL - KIAD

Flight Track Log - Related Links

Times and Time Zones

All times are in EDT time to prevent confusion due to time zone crossing. See the GJS3649 flight status page for this flight to view local times or setup timezone preferences in your user account.

Time Position Orientation Groundspeed Altitude Reporting Facility
EDT Latitude Longitude Course Direction KTS MPH feet Rate Location/Type
09:34AM 38.7297 -90.2753 109° East 159 183 1,200  Level FAA TRACON SMA TRACON (SMA)
09:34AM 38.7250 -90.2581 109° East 167 192 1,800 1,620 Climbing FAA TRACON SMA TRACON (SMA)
09:34AM 38.7236 -90.2308 94° East 194 223 2,300 1,200 Climbing FAA TRACON SMA TRACON (SMA)
09:35AM 38.7228 -90.2056 92° East 223 257 2,600 1,200 Climbing FAA TRACON SMA TRACON (SMA)
09:35AM 38.7214 -90.1769 94° East 254 292 3,100 1,920 Climbing FAA TRACON SMA TRACON (SMA)
09:35AM 38.7183 -90.1383 96° East 284 327 3,900 2,400 Climbing FAA TRACON SMA TRACON (SMA)
09:36AM 38.7117 -90.1064 105° East 297 342 4,700 2,820 Climbing FAA TRACON SMA TRACON (SMA)
09:36AM 38.7025 -90.0761 111° Southeast 301 346 5,800 3,300 Climbing FAA TRACON SMA TRACON (SMA)
09:36AM 38.6908 -90.0381 111° Southeast 299 344 6,900 2,820 Climbing FAA TRACON SMA TRACON (SMA)
09:37AM 38.6817 -90.0064 110° East 305 351 7,700 2,400 Climbing FAA TRACON SMA TRACON (SMA)
09:37AM 38.6717 -89.9747 112° Southeast 312 359 8,500 2,820 Climbing FAA TRACON SMA TRACON (SMA)
09:37AM 38.6597 -89.9339 111° Southeast 317 365 9,600 2,400 Climbing FAA TRACON SMA TRACON (SMA)
09:38AM 38.6500 -89.9008 111° Southeast 322 371 10,100 1,020 Climbing FAA TRACON SMA TRACON (SMA)
09:38AM 38.6392 -89.8653 111° Southeast 341 392 10,300 1,200 Climbing FAA TRACON SMA TRACON (SMA)
09:38AM 38.6247 -89.8181 111° Southeast 368 423 10,900 1,920 Climbing FAA TRACON SMA TRACON (SMA)
09:39AM 38.6136 -89.7792 110° East 378 435 11,600 2,160 Climbing FAA TRACON SMA TRACON (SMA)
09:39AM 38.6017 -89.7406 112° Southeast 381 438 12,400 2,520 Climbing FAA TRACON SMA TRACON (SMA)
09:39AM 38.5872 -89.6911 110° East 384 442 13,300 2,460 Climbing FAA TRACON SMA TRACON (SMA)
09:40AM 38.5758 -89.6517 110° East 386 444 14,000 1,860 Climbing FAA TRACON SMA TRACON (SMA)
09:40AM 38.5633 -89.6117 112° Southeast 391 450 14,600 2,100 Climbing FAA TRACON SMA TRACON (SMA)
09:40AM 38.5467 -89.5614 113° Southeast 398 458 15,400 2,100 Climbing FAA TRACON SMA TRACON (SMA)
09:41AM 38.5342 -89.5206 111° Southeast 402 463 16,000 1,740 Climbing FAA TRACON SMA TRACON (SMA)
09:41AM 38.5233 -89.4781 108° East 406 467 16,600 2,100 Climbing FAA TRACON SMA TRACON (SMA)
09:41AM 38.5097 -89.4250 108° East 411 473 17,400 2,460 Climbing FAA TRACON SMA TRACON (SMA)
09:42AM 38.4961 -89.3825 112° Southeast 416 479 18,200 1,860 Climbing FAA TRACON SMA TRACON (SMA)
09:42AM 38.4864 -89.3389 106° East 418 481 18,700 1,620 Climbing FAA TRACON SMA TRACON (SMA)
09:42AM 38.4708 -89.2844 110° East 425 489 19,300 1,680 Climbing FAA TRACON SMA TRACON (SMA)
09:43AM 38.4578 -89.2400 111° Southeast 430 495 19,800 1,620 Climbing FAA TRACON SMA TRACON (SMA)
09:43AM 38.4478 -89.1947 106° East 432 497 20,400 1,800 Climbing FAA TRACON SMA TRACON (SMA)
09:43AM 38.4317 -89.1386 110° East 437 503 21,000 1,260 Climbing FAA TRACON SMA TRACON (SMA)
09:44AM 38.4189 -89.1667 240° Southwest 434 499 21,400 1,440 Climbing Kansas City Center
09:45AM 38.3725 -89.0236 112° Southeast 436 502 23,100 1,500 Climbing Kansas City Center
09:46AM 38.3208 -88.8808 115° Southeast 443 510 24,500 1,380 Climbing Kansas City Center
09:47AM 38.2578 -88.7036 114° Southeast 457 526 26,000 1,140 Climbing Kansas City Center
09:48AM 38.2117 -88.5683 113° Southeast 467 537 26,900 900 Climbing Kansas City Center
09:49AM 38.1581 -88.4133 114° Southeast 475 547 27,900 1,020 Climbing Kansas City Center
09:50AM 38.1569 -88.2008 90° East 502 578 29,100 1,080 Climbing Kansas City Center
09:51AM 38.1697 -88.0217 85° East 510 587 30,200 1,020 Climbing Indianapolis Center
09:52AM 38.1803 -87.8400 86° East 514 592 31,200 960 Climbing Indianapolis Center
09:53AM 38.1900 -87.6578 86° East 516 594 32,200 960 Climbing Indianapolis Center
09:54AM 38.1992 -87.4764 86° East 514 592 33,200 960 Climbing Indianapolis Center
09:55AM 38.2078 -87.2953 86° East 515 593 34,200 960 Climbing Indianapolis Center
09:56AM 38.2178 -87.0975 86° East 515 593 35,300 900 Climbing Indianapolis Center
09:57AM 38.2261 -86.9086 87° East 509 586 36,100 660 Climbing Indianapolis Center
09:58AM 38.2344 -86.7289 87° East 512 589 36,700 540 Climbing Indianapolis Center
09:59AM 38.2425 -86.5469 87° East 514 592 37,300 660 Climbing Indianapolis Center
10:00AM 38.2503 -86.3653 87° East 515 593 38,100 720 Climbing Indianapolis Center
10:01AM 38.2572 -86.1881 87° East 505 581 38,900 420 Climbing Indianapolis Center
10:02AM 38.2656 -85.9756 87° East 502 578 39,000  Climbing Indianapolis Center
10:03AM 38.2731 -85.7942 87° East 510 587 39,000  Level Indianapolis Center
10:04AM 38.2797 -85.6103 87° East 518 596 39,000  Level Indianapolis Center
10:05AM 38.2864 -85.4256 87° East 521 600 39,000  Level Indianapolis Center
10:06AM 38.2917 -85.2406 88° East 522 601 39,000  Level Indianapolis Center
10:07AM 38.2969 -85.0528 88° East 521 600 39,000  Level Indianapolis Center
10:08AM 38.3036 -84.8397 88° East 516 594 39,000  Level Indianapolis Center
10:10AM 38.3089 -84.6575 88° East 512 589 39,000  Level Indianapolis Center
10:11AM 38.3142 -84.4797 88° East 504 580 39,000  Level Indianapolis Center
10:12AM 38.3181 -84.3033 88° East 498 573 39,000  Level Indianapolis Center
10:13AM 38.3222 -84.1297 88° East 490 564 39,000  Level Indianapolis Center
10:14AM 38.3250 -83.9603 89° East 481 554 39,000 -60 Level Indianapolis Center
10:15AM 38.3289 -83.7625 89° East 477 549 38,900  Descending Indianapolis Center
10:16AM 38.3322 -83.5964 88° East 471 542 39,000  Climbing Indianapolis Center
10:17AM 38.3353 -83.4283 89° East 472 543 39,000  Level Indianapolis Center
10:18AM 38.3372 -83.2578 89° East 476 548 39,000  Level Indianapolis Center
10:19AM 38.3394 -83.0881 89° East 477 549 39,000  Level Indianapolis Center
10:20AM 38.3417 -82.9172 89° East 480 552 39,000  Level Indianapolis Center
10:21AM 38.3436 -82.7167 89° East 483 556 39,000  Level Indianapolis Center
10:22AM 38.3450 -82.5458 89° East 483 556 39,000  Level Indianapolis Center
10:23AM 38.3467 -82.3894 89° East 482 555 39,000  Level Indianapolis Center
10:24AM 38.3475 -82.2169 90° East 485 558 39,000  Level Indianapolis Center
10:25AM 38.3497 -82.0450 89° East 486 559 39,000  Level Indianapolis Center
10:26AM 38.3500 -81.8386 90° East 489 563 39,000  Level Indianapolis Center
10:27AM 38.3475 -81.6647 91° East 494 568 39,000  Level Indianapolis Center
10:28AM 38.3406 -81.4903 93° East 498 573 39,000  Level Indianapolis Center
10:29AM 38.3350 -81.3172 92° East 496 571 39,000 -120 Level Indianapolis Center
10:30AM 38.3292 -81.1425 92° East 498 573 38,800 -540 Descending Indianapolis Center
10:31AM 38.3228 -81.0386 94° East 491 565 38,200 -1,080 Descending Washington Center
10:32AM 38.3161 -80.8608 93° East 496 571 37,200 -600 Descending Washington Center
10:33AM 38.3347 -80.6717 83° East 498 573 37,000 -120 Descending Washington Center
10:34AM 38.3603 -80.5092 79° East 484 557 37,000  Level Washington Center
10:34AM 38.3761 -80.4050 79° East 476 548 37,000  Level Indianapolis Center
10:35AM 38.3881 -80.3389 77° East 484 557 37,000 -840 Level Washington Center
10:36AM 38.4133 -80.1681 79° East 484 557 35,800 -2,040 Descending Washington Center
10:37AM 38.4400 -80.0133 78° East 490 564 33,000 -2,880 Descending Washington Center
10:38AM 38.4672 -79.8400 79° East 495 570 30,100 -2,760 Descending Washington Center
10:39AM 38.4917 -79.6717 79° East 495 570 27,500 -2,400 Descending Washington Center
10:40AM 38.5158 -79.5136 79° East 470 541 25,300 -1,800 Descending Washington Center
10:41AM 38.5419 -79.3450 79° East 444 511 24,000 -660 Descending Washington Center
10:42AM 38.5592 -79.1919 82° East 437 503 24,000 -720 Level Washington Center
10:43AM 38.5794 -79.0761 77° East 437 503 22,600 -2,160 Descending Washington Center
10:44AM 38.6156 -78.9050 75° East 419 482 19,700 -2,580 Descending Washington Center
10:45AM 38.6464 -78.7683 74° East 413 475 17,500 -2,400 Descending Washington Center
10:46AM 38.6750 -78.6311 75° East 402 463 15,000 -2,520 Descending Washington Center
10:47AM 38.7031 -78.5019 74° East 390 449 12,500 -2,040 Descending Washington Center
10:48AM 38.7286 -78.3886 74° East 359 413 11,000 -1,260 Descending Washington Center
10:49AM 38.7850 -78.3028 50° Northeast 315 362 10,000 -960 Descending Washington Center
10:50AM 38.8431 -78.2197 48° Northeast 309 356 9,100 -1,140 Descending Washington Center
10:51AM 38.8744 -78.1167 69° East 309 356 7,800 -1,380 Descending Washington Center
10:52AM 38.8992 -78.0217 71° East 290 334 6,400 -900 Descending Washington Center
10:53AM 38.9242 -77.9236 72° East 290 334 6,000 -240 Descending Washington Center
10:54AM 38.9511 -77.8206 71° East 285 328 6,000  Level Washington Center
10:55AM 38.9611 -77.7353 81° East 279 321 6,000  Level Washington Center
10:56AM 38.9628 -77.6258 89° East 273 314 6,000  Level Washington Center
10:57AM 39.0000 -77.5833 42° Northeast 229 264 6,000 -300 Level Potomac TRACON
10:58AM 39.0500 -77.5500 27° Northeast 211 243 5,500 -900 Descending Potomac TRACON
10:58AM 39.1000 -77.5500 360° North 196 226 4,300 -1,200 Descending Potomac TRACON
10:59AM 39.1333 -77.5167 38° Northeast 216 249 3,200 -900 Descending Potomac TRACON
11:00AM 39.1000 -77.4833 142° Southeast 194 223 2,600 -780 Descending Potomac TRACON
11:01AM 39.0333 -77.4667 169° South 189 217 1,700 -900 Descending Potomac TRACON
11:02AM 39.0000 -77.4667 180° South 137 158 900 -840 Descending Potomac TRACON
11:04AM 38.9474 -77.4599 165° South  Level Estimated
11:11AM 38.9474 -77.4599 165° South  Level Estimated
11:12AM 38.9474 -77.4599 165° South  Level Estimated